| time (UTC) | temp C | wind direction | speed KPH | gust KPH | rain 1hr cm | rain 24hr cm | rain mn cm | humidity % | barometer mb |
| 20260509041031 | 2 | 0 | 0.0 | 3.2 | 0.00 | 0.00 | 0.00 | 73 | 1011.6 |
| 20260509040532 | 2 | 0 | 0.0 | 1.6 | 0.00 | 0.00 | 0.00 | 73 | 1011.5 |
| 20260509040052 | 2 | 0 | 0.0 | 4.8 | 0.00 | 0.00 | 0.00 | 72 | 1011.6 |
| 20260509035532 | 2 | 0 | 0.0 | 4.8 | 0.00 | 0.00 | 0.00 | 72 | 1011.6 |
| 20260509035031 | 2 | 0 | 0.0 | 4.8 | 0.00 | 0.00 | 0.00 | 72 | 1011.5 |
| 20260509034543 | 2 | 0 | 0.0 | 8.0 | 0.00 | 0.00 | 0.00 | 73 | 1011.6 |
| 20260509034028 | 2 | 235 | 1.6 | 8.0 | 0.00 | 0.00 | 0.00 | 73 | 1011.7 |
| 20260509033528 | 2 | 234 | 1.6 | 9.7 | 0.00 | 0.00 | 0.00 | 73 | 1011.6 |
| 20260509033046 | 2 | 248 | 3.2 | 9.7 | 0.00 | 0.00 | 0.00 | 73 | 1011.6 |
| 20260509032532 | 2 | 236 | 3.2 | 12.9 | 0.00 | 0.00 | 0.00 | 73 | 1011.7 |
| 20260509032028 | 2 | 240 | 3.2 | 12.9 | 0.00 | 0.00 | 0.00 | 73 | 1011.6 |
| 20260509031546 | 2 | 227 | 1.6 | 6.4 | 0.00 | 0.00 | 0.00 | 73 | 1011.6 |
| 20260509031028 | 2 | 249 | 1.6 | 6.4 | 0.00 | 0.00 | 0.00 | 73 | 1011.6 |
| 20260509030531 | 2 | 249 | 1.6 | 6.4 | 0.00 | 0.00 | 0.00 | 73 | 1011.6 |
| 20260509030043 | 2 | 0 | 1.6 | 6.4 | 0.00 | 0.00 | 0.00 | 73 | 1011.5 |
| 20260509025530 | 2 | 209 | 0.0 | 4.8 | 0.00 | 0.00 | 0.00 | 73 | 1011.5 |
| 20260509025032 | 3 | 0 | 0.0 | 8.0 | 0.00 | 0.00 | 0.00 | 73 | 1011.5 |
| 20260509024537 | 3 | 0 | 0.0 | 8.0 | 0.00 | 0.00 | 0.00 | 72 | 1011.4 |
| 20260509024032 | 3 | 137 | 1.6 | 8.0 | 0.00 | 0.00 | 0.00 | 73 | 1011.4 |
| 20260509023531 | 3 | 213 | 0.0 | 6.4 | 0.00 | 0.00 | 0.00 | 72 | 1011.4 |
| 20260509023047 | 3 | 0 | 0.0 | 8.0 | 0.00 | 0.00 | 0.00 | 72 | 1011.4 |
| 20260509022531 | 3 | 222 | 3.2 | 14.5 | 0.00 | 0.00 | 0.00 | 72 | 1011.4 |
| 20260509022032 | 3 | 229 | 4.8 | 14.5 | 0.00 | 0.00 | 0.00 | 72 | 1011.3 |
| 20260509021543 | 3 | 246 | 3.2 | 6.4 | 0.00 | 0.00 | 0.00 | 72 | 1011.3 |
| 20260509021031 | 3 | 246 | 1.6 | 8.0 | 0.00 | 0.00 | 0.00 | 72 | 1011.3 |
| 20260509020531 | 3 | 247 | 3.2 | 8.0 | 0.00 | 0.00 | 0.00 | 72 | 1011.1 |
| 20260509020043 | 3 | 219 | 1.6 | 11.3 | 0.00 | 0.00 | 0.00 | 72 | 1011.1 |
| 20260509015535 | 3 | 202 | 4.8 | 11.3 | 0.00 | 0.00 | 0.00 | 71 | 1011.0 |
| 20260509015031 | 3 | 244 | 1.6 | 6.4 | 0.00 | 0.00 | 0.00 | 72 | 1010.9 |
| 20260509014543 | 3 | 0 | 1.6 | 6.4 | 0.00 | 0.00 | 0.00 | 72 | 1011.0 |
| 20260509014028 | 3 | 298 | 1.6 | 6.4 | 0.00 | 0.00 | 0.00 | 72 | 1010.9 |
| 20260509013533 | 3 | 250 | 1.6 | 6.4 | 0.00 | 0.00 | 0.00 | 72 | 1010.8 |
| 20260509013058 | 3 | 226 | 1.6 | 4.8 | 0.00 | 0.00 | 0.00 | 72 | 1010.9 |
| 20260509012532 | 3 | 240 | 1.6 | 6.4 | 0.00 | 0.00 | 0.00 | 72 | 1010.9 |
| 20260509012028 | 3 | 240 | 1.6 | 6.4 | 0.00 | 0.00 | 0.00 | 72 | 1010.9 |
| 20260509011539 | 3 | 233 | 3.2 | 6.4 | 0.00 | 0.00 | 0.00 | 72 | 1010.7 |
| 20260509011028 | 3 | 247 | 3.2 | 8.0 | 0.00 | 0.00 | 0.00 | 71 | 1010.7 |
| 20260509010531 | 3 | 231 | 3.2 | 11.3 | 0.00 | 0.00 | 0.00 | 71 | 1010.7 |
| 20260509010044 | 3 | 240 | 1.6 | 11.3 | 0.00 | 0.00 | 0.00 | 71 | 1010.5 |
| 20260509005532 | 3 | 244 | 3.2 | 11.3 | 0.00 | 0.00 | 0.00 | 71 | 1010.5 |
| 20260509005031 | 3 | 225 | 3.2 | 9.7 | 0.00 | 0.00 | 0.00 | 70 | 1010.5 |
| 20260509004608 | 3 | 257 | 3.2 | 9.7 | 0.00 | 0.00 | 0.00 | 71 | 1010.3 |
| 20260509004033 | 3 | 241 | 3.2 | 8.0 | 0.00 | 0.00 | 0.00 | 71 | 1010.2 |
| 20260509003532 | 3 | 241 | 3.2 | 11.3 | 0.00 | 0.00 | 0.00 | 70 | 1010.1 |
| 20260509003048 | 3 | 236 | 4.8 | 11.3 | 0.00 | 0.00 | 0.00 | 70 | 1009.9 |
| 20260509002533 | 4 | 239 | 4.8 | 14.5 | 0.00 | 0.00 | 0.00 | 70 | 1009.8 |
| 20260509002031 | 4 | 242 | 4.8 | 16.1 | 0.00 | 0.00 | 0.00 | 69 | 1009.7 |
| 20260509001544 | 4 | 261 | 8.0 | 16.1 | 0.00 | 0.00 | 0.00 | 70 | 1009.6 |
| 20260509001028 | 4 | 238 | 4.8 | 12.9 | 0.00 | 0.00 | 0.00 | 69 | 1009.7 |
| 20260509000531 | 4 | 211 | 6.4 | 16.1 | 0.00 | 0.00 | 0.00 | 69 | 1009.8 |
| 20260509000039 | 4 | 250 | 6.4 | 16.1 | 0.00 | 0.00 | 0.00 | 69 | 1009.8 |
| 20260508235530 | 4 | 221 | 4.8 | 11.3 | 0.00 | 0.00 | 0.00 | 69 | 1009.8 |
| 20260508235031 | 4 | 253 | 4.8 | 19.3 | 0.00 | 0.00 | 0.00 | 69 | 1009.8 |
| 20260508234546 | 4 | 248 | 4.8 | 19.3 | 0.00 | 0.00 | 0.00 | 70 | 1009.7 |
| 20260508234030 | 4 | 248 | 11.3 | 19.3 | 0.00 | 0.00 | 0.00 | 68 | 1009.5 |
| 20260508233532 | 4 | 240 | 8.0 | 17.7 | 0.00 | 0.00 | 0.00 | 69 | 1009.6 |
| 20260508233056 | 5 | 209 | 6.4 | 24.1 | 0.00 | 0.00 | 0.00 | 69 | 1009.5 |
| 20260508232532 | 5 | 263 | 6.4 | 24.1 | 0.00 | 0.00 | 0.00 | 69 | 1009.5 |
| 20260508232035 | 5 | 244 | 6.4 | 17.7 | 0.00 | 0.00 | 0.00 | 68 | 1009.5 |
| 20260508231544 | 5 | 257 | 6.4 | 17.7 | 0.00 | 0.00 | 0.00 | 68 | 1009.5 |
| 20260508231034 | 5 | 255 | 6.4 | 17.7 | 0.00 | 0.00 | 0.00 | 68 | 1009.5 |
| 20260508230531 | 5 | 263 | 4.8 | 17.7 | 0.00 | 0.00 | 0.00 | 68 | 1009.5 |
| 20260508230055 | 5 | 273 | 6.4 | 17.7 | 0.00 | 0.00 | 0.00 | 69 | 1009.4 |
| 20260508225531 | 5 | 263 | 3.2 | 17.7 | 0.00 | 0.00 | 0.00 | 70 | 1009.3 |
| 20260508225031 | 5 | 273 | 4.8 | 16.1 | 0.00 | 0.00 | 0.00 | 70 | 1009.4 |
| 20260508224544 | 5 | 249 | 6.4 | 20.9 | 0.00 | 0.00 | 0.00 | 69 | 1009.4 |
| 20260508224031 | 5 | 184 | 8.0 | 20.9 | 0.00 | 0.00 | 0.00 | 69 | 1009.3 |
| 20260508223531 | 5 | 224 | 8.0 | 17.7 | 0.00 | 0.00 | 0.00 | 69 | 1009.3 |
| 20260508223041 | 5 | 251 | 6.4 | 19.3 | 0.00 | 0.00 | 0.00 | 69 | 1009.3 |
| 20260508222530 | 5 | 216 | 8.0 | 19.3 | 0.00 | 0.00 | 0.00 | 68 | 1009.3 |
| 20260508222032 | 5 | 251 | 8.0 | 17.7 | 0.00 | 0.00 | 0.00 | 66 | 1009.2 |
| 20260508221546 | 6 | 261 | 4.8 | 12.9 | 0.00 | 0.00 | 0.00 | 66 | 1009.3 |
| 20260508221031 | 6 | 278 | 6.4 | 19.3 | 0.00 | 0.00 | 0.00 | 65 | 1009.4 |
| 20260508220531 | 6 | 264 | 6.4 | 19.3 | 0.00 | 0.00 | 0.00 | 64 | 1009.2 |
| 20260508220051 | 6 | 219 | 8.0 | 19.3 | 0.00 | 0.00 | 0.00 | 65 | 1009.3 |
| 20260508215530 | 6 | 264 | 4.8 | 14.5 | 0.00 | 0.00 | 0.00 | 64 | 1009.2 |
| 20260508215030 | 6 | 257 | 4.8 | 17.7 | 0.00 | 0.00 | 0.00 | 65 | 1009.2 |
| 20260508214548 | 6 | 210 | 8.0 | 20.9 | 0.00 | 0.00 | 0.00 | 64 | 1009.1 |
| 20260508214032 | 6 | 263 | 8.0 | 20.9 | 0.00 | 0.00 | 0.00 | 63 | 1009.1 |
| 20260508213533 | 6 | 256 | 6.4 | 19.3 | 0.00 | 0.00 | 0.00 | 63 | 1009.0 |
| 20260508213043 | 6 | 230 | 4.8 | 17.7 | 0.00 | 0.00 | 0.00 | 65 | 1009.0 |
| 20260508212529 | 6 | 234 | 9.7 | 17.7 | 0.00 | 0.00 | 0.00 | 67 | 1009.0 |
| 20260508212029 | 5 | 238 | 8.0 | 16.1 | 0.00 | 0.00 | 0.00 | 67 | 1009.0 |
| 20260508211543 | 6 | 241 | 6.4 | 20.9 | 0.00 | 0.00 | 0.00 | 67 | 1009.0 |
| 20260508211030 | 6 | 229 | 11.3 | 20.9 | 0.00 | 0.00 | 0.00 | 67 | 1008.9 |
| 20260508210530 | 6 | 247 | 8.0 | 20.9 | 0.00 | 0.00 | 0.00 | 67 | 1008.9 |
| 20260508210057 | 6 | 250 | 4.8 | 19.3 | 0.00 | 0.00 | 0.00 | 67 | 1008.9 |
| 20260508205530 | 6 | 218 | 6.4 | 22.5 | 0.00 | 0.00 | 0.00 | 66 | 1008.9 |
| 20260508205031 | 6 | 247 | 8.0 | 29.0 | 0.00 | 0.00 | 0.00 | 64 | 1008.9 |
| 20260508204545 | 7 | 292 | 11.3 | 38.6 | 0.00 | 0.00 | 0.00 | 57 | 1008.7 |
| 20260508204029 | 7 | 242 | 12.9 | 38.6 | 0.00 | 0.00 | 0.00 | 53 | 1008.5 |
| 20260508203529 | 8 | 230 | 17.7 | 38.6 | 0.00 | 0.00 | 0.00 | 50 | 1008.2 |
| 20260508203047 | 9 | 252 | 8.0 | 24.1 | 0.00 | 0.00 | 0.00 | 53 | 1008.4 |
| 20260508202530 | 8 | 253 | 9.7 | 24.1 | 0.00 | 0.00 | 0.00 | 51 | 1008.2 |
| 20260508202029 | 8 | 209 | 11.3 | 24.1 | 0.00 | 0.00 | 0.00 | 50 | 1008.2 |
| 20260508201546 | 8 | 215 | 6.4 | 22.5 | 0.00 | 0.00 | 0.00 | 51 | 1008.1 |
| 20260508201029 | 8 | 227 | 11.3 | 20.9 | 0.00 | 0.00 | 0.00 | 50 | 1008.1 |
| 20260508200531 | 8 | 215 | 8.0 | 25.7 | 0.00 | 0.00 | 0.00 | 51 | 1008.2 |
| 20260508200048 | 8 | 225 | 6.4 | 25.7 | 0.00 | 0.00 | 0.00 | 50 | 1008.1 |
| 20260508195530 | 8 | 190 | 8.0 | 25.7 | 0.00 | 0.00 | 0.00 | 51 | 1008.1 |
| 20260508195032 | 8 | 258 | 12.9 | 25.7 | 0.00 | 0.00 | 0.00 | 49 | 1008.1 |
| 20260508194545 | 8 | 266 | 11.3 | 27.4 | 0.00 | 0.00 | 0.00 | 50 | 1008.1 |
| 20260508194031 | 8 | 213 | 12.9 | 29.0 | 0.00 | 0.00 | 0.00 | 51 | 1008.2 |
| 20260508193529 | 8 | 252 | 14.5 | 29.0 | 0.00 | 0.00 | 0.00 | 49 | 1008.4 |
| 20260508193052 | 8 | 234 | 9.7 | 24.1 | 0.00 | 0.00 | 0.00 | 51 | 1008.2 |
| 20260508192529 | 8 | 206 | 9.7 | 24.1 | 0.00 | 0.00 | 0.00 | 50 | 1008.3 |
| 20260508192031 | 8 | 215 | 9.7 | 24.1 | 0.00 | 0.00 | 0.00 | 51 | 1008.2 |
| 20260508191548 | 8 | 178 | 9.7 | 24.1 | 0.00 | 0.00 | 0.00 | 52 | 1008.2 |
| 20260508191031 | 7 | 274 | 12.9 | 24.1 | 0.00 | 0.00 | 0.00 | 53 | 1008.1 |
| 20260508190532 | 7 | 239 | 8.0 | 24.1 | 0.00 | 0.00 | 0.00 | 52 | 1008.2 |
| 20260508190054 | 8 | 245 | 11.3 | 24.1 | 0.00 | 0.00 | 0.00 | 52 | 1008.2 |
| 20260508185529 | 8 | 184 | 11.3 | 24.1 | 0.00 | 0.00 | 0.00 | 53 | 1008.3 |
| 20260508185029 | 8 | 240 | 6.4 | 24.1 | 0.00 | 0.00 | 0.00 | 55 | 1008.4 |
| 20260508184600 | 8 | 136 | 11.3 | 27.4 | 0.00 | 0.00 | 0.00 | 53 | 1008.3 |
| 20260508184029 | 8 | 227 | 9.7 | 30.6 | 0.00 | 0.00 | 0.00 | 55 | 1008.4 |
| 20260508183529 | 7 | 221 | 12.9 | 30.6 | 0.00 | 0.00 | 0.00 | 55 | 1008.5 |
| 20260508183044 | 7 | 239 | 14.5 | 27.4 | 0.00 | 0.00 | 0.00 | 53 | 1008.5 |
| 20260508182530 | 8 | 240 | 12.9 | 27.4 | 0.00 | 0.00 | 0.00 | 53 | 1008.4 |
| 20260508182029 | 8 | 269 | 12.9 | 30.6 | 0.00 | 0.00 | 0.00 | 51 | 1008.4 |
| 20260508181557 | 8 | 261 | 12.9 | 30.6 | 0.00 | 0.00 | 0.00 | 52 | 1008.2 |
| 20260508181029 | 8 | 217 | 12.9 | 25.7 | 0.00 | 0.00 | 0.00 | 51 | 1008.3 |
| 20260508180529 | 7 | 197 | 11.3 | 25.7 | 0.00 | 0.00 | 0.00 | 52 | 1008.3 |
| 20260508180046 | 8 | 271 | 8.0 | 33.8 | 0.00 | 0.00 | 0.00 | 52 | 1008.2 |
| 20260508175530 | 8 | 258 | 9.7 | 33.8 | 0.00 | 0.00 | 0.00 | 51 | 1008.2 |
| 20260508175030 | 8 | 103 | 11.3 | 33.8 | 0.00 | 0.00 | 0.00 | 50 | 1008.3 |
| 20260508174545 | 8 | 219 | 12.9 | 30.6 | 0.00 | 0.00 | 0.00 | 51 | 1008.4 |
| 20260508174029 | 8 | 211 | 12.9 | 32.2 | 0.00 | 0.00 | 0.00 | 50 | 1008.4 |
| 20260508173530 | 8 | 211 | 12.9 | 32.2 | 0.00 | 0.00 | 0.00 | 50 | 1008.4 |
| 20260508173048 | 8 | 257 | 6.4 | 25.7 | 0.00 | 0.00 | 0.00 | 53 | 1008.4 |
| 20260508172529 | 7 | 256 | 11.3 | 25.7 | 0.00 | 0.00 | 0.00 | 50 | 1008.4 |
| 20260508172029 | 7 | 201 | 11.3 | 22.5 | 0.00 | 0.00 | 0.00 | 52 | 1008.4 |
| 20260508171544 | 7 | 195 | 9.7 | 30.6 | 0.00 | 0.00 | 0.00 | 53 | 1008.4 |
| 20260508171030 | 7 | 273 | 14.5 | 30.6 | 0.00 | 0.00 | 0.00 | 53 | 1008.5 |
| 20260508170532 | 6 | 190 | 12.9 | 30.6 | 0.00 | 0.00 | 0.00 | 55 | 1008.5 |
| 20260508170042 | 6 | 240 | 14.5 | 27.4 | 0.00 | 0.00 | 0.00 | 55 | 1008.4 |
| 20260508165530 | 6 | 240 | 9.7 | 27.4 | 0.00 | 0.00 | 0.00 | 55 | 1008.5 |
| 20260508165032 | 6 | 220 | 11.3 | 24.1 | 0.00 | 0.00 | 0.00 | 54 | 1008.4 |
| 20260508164558 | 6 | 277 | 9.7 | 25.7 | 0.00 | 0.00 | 0.00 | 54 | 1008.5 |
| 20260508164031 | 6 | 255 | 12.9 | 25.7 | 0.00 | 0.00 | 0.00 | 53 | 1008.5 |
| 20260508163531 | 6 | 186 | 11.3 | 20.9 | 0.00 | 0.00 | 0.00 | 53 | 1008.5 |
| 20260508163045 | 6 | 270 | 8.0 | 22.5 | 0.00 | 0.00 | 0.00 | 53 | 1008.4 |
| 20260508162531 | 6 | 231 | 9.7 | 22.5 | 0.00 | 0.00 | 0.00 | 53 | 1008.5 |
| 20260508162032 | 6 | 281 | 9.7 | 19.3 | 0.00 | 0.00 | 0.00 | 54 | 1008.6 |
| 20260508161549 | 6 | 254 | 8.0 | 19.3 | 0.00 | 0.00 | 0.00 | 54 | 1008.5 |
| 20260508161032 | 6 | 247 | 9.7 | 19.3 | 0.00 | 0.00 | 0.00 | 52 | 1008.5 |
| 20260508160530 | 6 | 250 | 6.4 | 19.3 | 0.00 | 0.00 | 0.00 | 52 | 1008.4 |
| 20260508160044 | 6 | 207 | 6.4 | 19.3 | 0.00 | 0.00 | 0.00 | 52 | 1008.6 |
| 20260508155529 | 6 | 235 | 9.7 | 17.7 | 0.00 | 0.00 | 0.00 | 51 | 1008.5 |
| 20260508155029 | 6 | 246 | 8.0 | 19.3 | 0.00 | 0.00 | 0.00 | 52 | 1008.6 |
| 20260508154544 | 7 | 227 | 6.4 | 19.3 | 0.00 | 0.00 | 0.00 | 50 | 1008.4 |
| 20260508154030 | 7 | 250 | 9.7 | 19.3 | 0.00 | 0.00 | 0.00 | 50 | 1008.5 |
| 20260508153531 | 6 | 238 | 4.8 | 24.1 | 0.00 | 0.00 | 0.00 | 51 | 1008.5 |
| 20260508153040 | 7 | 281 | 9.7 | 24.1 | 0.00 | 0.00 | 0.00 | 49 | 1008.5 |
| 20260508152529 | 7 | 252 | 11.3 | 38.6 | 0.00 | 0.00 | 0.00 | 48 | 1008.4 |
| 20260508152029 | 7 | 263 | 11.3 | 38.6 | 0.00 | 0.00 | 0.00 | 47 | 1008.4 |
| 20260508151538 | 7 | 231 | 8.0 | 20.9 | 0.00 | 0.00 | 0.00 | 49 | 1008.1 |
| 20260508151033 | 6 | 265 | 8.0 | 20.9 | 0.00 | 0.00 | 0.00 | 52 | 1008.3 |
| 20260508150529 | 6 | 234 | 12.9 | 20.9 | 0.00 | 0.00 | 0.00 | 51 | 1008.1 |
| 20260508150052 | 6 | 257 | 8.0 | 17.7 | 0.00 | 0.00 | 0.00 | 50 | 1008.1 |
| 20260508145531 | 7 | 253 | 6.4 | 17.7 | 0.00 | 0.00 | 0.00 | 49 | 1008.0 |
| 20260508145028 | 7 | 288 | 6.4 | 27.4 | 0.00 | 0.00 | 0.00 | 51 | 1008.0 |
| 20260508144601 | 7 | 277 | 4.8 | 27.4 | 0.00 | 0.00 | 0.00 | 49 | 1008.0 |
| 20260508144031 | 6 | 246 | 11.3 | 27.4 | 0.00 | 0.00 | 0.00 | 48 | 1008.1 |
| 20260508143531 | 6 | 320 | 6.4 | 22.5 | 0.00 | 0.00 | 0.00 | 51 | 1008.2 |
| 20260508143045 | 6 | 196 | 6.4 | 16.1 | 0.00 | 0.00 | 0.00 | 53 | 1008.3 |
| 20260508142533 | 6 | 0 | 8.0 | 16.1 | 0.00 | 0.00 | 0.00 | 52 | 1008.3 |
| 20260508142031 | 5 | 194 | 6.4 | 17.7 | 0.00 | 0.00 | 0.00 | 54 | 1008.3 |
| 20260508141550 | 5 | 254 | 6.4 | 20.9 | 0.00 | 0.00 | 0.00 | 54 | 1008.3 |
| 20260508141030 | 5 | 259 | 8.0 | 20.9 | 0.00 | 0.00 | 0.00 | 54 | 1008.4 |
| 20260508140530 | 5 | 275 | 6.4 | 17.7 | 0.00 | 0.00 | 0.00 | 53 | 1008.6 |
| 20260508140051 | 5 | 255 | 6.4 | 17.7 | 0.00 | 0.00 | 0.00 | 55 | 1008.5 |
| 20260508135532 | 5 | 248 | 8.0 | 17.7 | 0.00 | 0.00 | 0.00 | 56 | 1008.5 |
| 20260508135032 | 5 | 269 | 6.4 | 17.7 | 0.00 | 0.00 | 0.00 | 57 | 1008.5 |
| 20260508134553 | 5 | 280 | 4.8 | 16.1 | 0.00 | 0.00 | 0.00 | 58 | 1008.5 |
| 20260508134028 | 5 | 245 | 6.4 | 22.5 | 0.00 | 0.00 | 0.00 | 57 | 1008.6 |
| 20260508133531 | 5 | 263 | 8.0 | 22.5 | 0.00 | 0.00 | 0.00 | 58 | 1008.6 |
| 20260508133109 | 4 | 220 | 4.8 | 16.1 | 0.00 | 0.00 | 0.00 | 59 | 1008.6 |
| 20260508132530 | 4 | 224 | 8.0 | 19.3 | 0.00 | 0.00 | 0.00 | 59 | 1008.6 |
| 20260508132029 | 4 | 141 | 4.8 | 19.3 | 0.00 | 0.00 | 0.00 | 60 | 1008.6 |
| 20260508131547 | 4 | 264 | 11.3 | 19.3 | 0.00 | 0.00 | 0.00 | 60 | 1008.7 |
| 20260508131031 | 3 | 261 | 4.8 | 12.9 | 0.00 | 0.00 | 0.00 | 63 | 1008.8 |
| 20260508130530 | 3 | 264 | 4.8 | 25.7 | 0.00 | 0.00 | 0.00 | 65 | 1008.8 |
| 20260508130043 | 3 | 264 | 6.4 | 25.7 | 0.00 | 0.00 | 0.00 | 64 | 1008.7 |
| 20260508125530 | 3 | 218 | 8.0 | 24.1 | 0.00 | 0.00 | 0.00 | 64 | 1008.8 |
| 20260508125028 | 3 | 232 | 6.4 | 19.3 | 0.00 | 0.00 | 0.00 | 69 | 1008.6 |
| 20260508124541 | 2 | 257 | 6.4 | 19.3 | 0.00 | 0.00 | 0.00 | 70 | 1008.7 |
| 20260508124031 | 2 | 246 | 6.4 | 19.3 | 0.00 | 0.00 | 0.00 | 72 | 1008.7 |
| 20260508123533 | 2 | 231 | 4.8 | 12.9 | 0.00 | 0.00 | 0.00 | 72 | 1008.7 |
| 20260508123058 | 2 | 261 | 4.8 | 12.9 | 0.00 | 0.00 | 0.00 | 75 | 1008.7 |
| 20260508122528 | 2 | 269 | 4.8 | 12.9 | 0.00 | 0.00 | 0.00 | 75 | 1008.7 |
| 20260508122030 | 1 | 223 | 3.2 | 14.5 | 0.00 | 0.00 | 0.00 | 75 | 1008.7 |
| 20260508121544 | 1 | 236 | 3.2 | 14.5 | 0.00 | 0.00 | 0.00 | 75 | 1008.8 |
| 20260508121030 | 1 | 242 | 4.8 | 16.1 | 0.00 | 0.00 | 0.00 | 76 | 1008.7 |
| 20260508120530 | 1 | 270 | 8.0 | 16.1 | 0.00 | 0.00 | 0.00 | 75 | 1008.7 |
| 20260508120046 | 1 | 250 | 6.4 | 19.3 | 0.00 | 0.00 | 0.00 | 75 | 1008.9 |
| 20260508115530 | 1 | 232 | 6.4 | 19.3 | 0.00 | 0.00 | 0.00 | 73 | 1008.8 |
| 20260508115030 | 1 | 207 | 4.8 | 11.3 | 0.00 | 0.00 | 0.00 | 73 | 1008.8 |
| 20260508114540 | 1 | 204 | 3.2 | 11.3 | 0.00 | 0.00 | 0.00 | 72 | 1008.7 |
| 20260508114031 | 1 | 248 | 4.8 | 14.5 | 0.00 | 0.00 | 0.00 | 72 | 1008.7 |
| 20260508113531 | 1 | 292 | 4.8 | 14.5 | 0.00 | 0.00 | 0.00 | 72 | 1008.7 |
| 20260508113102 | 1 | 246 | 3.2 | 14.5 | 0.00 | 0.00 | 0.00 | 72 | 1008.7 |
| 20260508112534 | 1 | 257 | 4.8 | 14.5 | 0.00 | 0.00 | 0.00 | 72 | 1008.7 |
| 20260508112030 | 1 | 228 | 3.2 | 11.3 | 0.00 | 0.00 | 0.00 | 72 | 1008.6 |
| 20260508111546 | 1 | 285 | 4.8 | 14.5 | 0.00 | 0.00 | 0.00 | 72 | 1008.6 |
| 20260508111028 | 1 | 259 | 4.8 | 14.5 | 0.00 | 0.00 | 0.00 | 72 | 1008.5 |
| 20260508110528 | 1 | 264 | 4.8 | 11.3 | 0.00 | 0.00 | 0.00 | 72 | 1008.5 |
| 20260508110054 | 1 | 246 | 3.2 | 8.0 | 0.00 | 0.00 | 0.00 | 72 | 1008.4 |
| 20260508105530 | 1 | 243 | 3.2 | 11.3 | 0.00 | 0.00 | 0.00 | 72 | 1008.3 |
| 20260508105029 | 1 | 242 | 4.8 | 11.3 | 0.00 | 0.00 | 0.00 | 71 | 1008.2 |
| 20260508104544 | 1 | 244 | 3.2 | 9.7 | 0.00 | 0.00 | 0.00 | 71 | 1008.1 |
| 20260508104028 | 1 | 233 | 3.2 | 9.7 | 0.00 | 0.00 | 0.00 | 70 | 1008.1 |
| 20260508103529 | 1 | 237 | 1.6 | 11.3 | 0.00 | 0.00 | 0.00 | 71 | 1008.0 |
| 20260508103052 | 1 | 246 | 3.2 | 11.3 | 0.00 | 0.00 | 0.00 | 70 | 1008.0 |
| 20260508102530 | 1 | 240 | 3.2 | 9.7 | 0.00 | 0.00 | 0.00 | 69 | 1008.0 |
| 20260508102031 | 1 | 259 | 1.6 | 8.0 | 0.00 | 0.00 | 0.00 | 69 | 1007.9 |
| 20260508101541 | 1 | 0 | 0.0 | 4.8 | 0.00 | 0.00 | 0.00 | 69 | 1007.8 |
| 20260508101030 | 1 | 236 | 1.6 | 4.8 | 0.00 | 0.00 | 0.00 | 69 | 1007.7 |
| 20260508100532 | 1 | 0 | 0.0 | 0.0 | 0.00 | 0.00 | 0.00 | 69 | 1007.6 |
| 20260508100044 | 1 | 0 | 0.0 | 3.2 | 0.00 | 0.00 | 0.00 | 69 | 1007.6 |
| 20260508095529 | 1 | 0 | 0.0 | 8.0 | 0.00 | 0.00 | 0.00 | 69 | 1007.6 |
| 20260508095029 | 1 | 0 | 1.6 | 8.0 | 0.00 | 0.00 | 0.00 | 68 | 1007.7 |
| 20260508094543 | 1 | 218 | 3.2 | 8.0 | 0.00 | 0.00 | 0.00 | 68 | 1007.6 |
| 20260508094030 | 1 | 219 | 3.2 | 8.0 | 0.00 | 0.00 | 0.00 | 68 | 1007.6 |
| 20260508093530 | 1 | 239 | 1.6 | 8.0 | 0.00 | 0.00 | 0.00 | 68 | 1007.6 |
| 20260508093044 | 1 | 254 | 3.2 | 9.7 | 0.00 | 0.00 | 0.00 | 68 | 1007.6 |
| 20260508092531 | 1 | 255 | 3.2 | 9.7 | 0.00 | 0.00 | 0.00 | 67 | 1007.5 |
| 20260508092028 | 1 | 248 | 4.8 | 14.5 | 0.00 | 0.00 | 0.00 | 67 | 1007.3 |
| 20260508091552 | 1 | 263 | 6.4 | 14.5 | 0.00 | 0.00 | 0.00 | 67 | 1007.2 |
| 20260508091031 | 1 | 249 | 4.8 | 11.3 | 0.00 | 0.00 | 0.00 | 68 | 1007.3 |
| 20260508090530 | 1 | 235 | 4.8 | 11.3 | 0.00 | 0.00 | 0.00 | 68 | 1007.3 |
| 20260508090059 | 1 | 240 | 4.8 | 11.3 | 0.00 | 0.00 | 0.00 | 68 | 1007.3 |
| 20260508085530 | 1 | 246 | 4.8 | 12.9 | 0.00 | 0.00 | 0.00 | 68 | 1007.2 |
| 20260508085030 | 1 | 254 | 6.4 | 12.9 | 0.00 | 0.00 | 0.00 | 67 | 1007.2 |
| 20260508084546 | 1 | 252 | 6.4 | 12.9 | 0.00 | 0.00 | 0.00 | 67 | 1007.2 |
| 20260508084032 | 1 | 262 | 4.8 | 16.1 | 0.00 | 0.00 | 0.00 | 67 | 1007.3 |
| 20260508083531 | 1 | 258 | 4.8 | 16.1 | 0.00 | 0.00 | 0.00 | 67 | 1007.3 |
| 20260508083043 | 1 | 244 | 4.8 | 16.1 | 0.00 | 0.00 | 0.00 | 66 | 1007.2 |
| 20260508082532 | 1 | 257 | 6.4 | 14.5 | 0.00 | 0.00 | 0.00 | 66 | 1007.1 |
| 20260508082030 | 1 | 259 | 6.4 | 14.5 | 0.00 | 0.00 | 0.00 | 66 | 1007.0 |
| 20260508081546 | 1 | 263 | 4.8 | 12.9 | 0.00 | 0.00 | 0.00 | 66 | 1007.0 |
| 20260508081032 | 1 | 248 | 4.8 | 12.9 | 0.00 | 0.00 | 0.00 | 66 | 1007.0 |
| 20260508080533 | 1 | 240 | 6.4 | 12.9 | 0.00 | 0.00 | 0.00 | 67 | 1007.1 |
| 20260508080039 | 1 | 244 | 6.4 | 16.1 | 0.00 | 0.00 | 0.00 | 66 | 1007.1 |
| 20260508075530 | 1 | 257 | 6.4 | 16.1 | 0.00 | 0.00 | 0.00 | 66 | 1007.1 |
| 20260508075027 | 1 | 255 | 8.0 | 14.5 | 0.00 | 0.00 | 0.00 | 66 | 1007.0 |
| 20260508074543 | 1 | 240 | 6.4 | 16.1 | 0.00 | 0.00 | 0.00 | 67 | 1007.0 |
| 20260508074031 | 1 | 248 | 6.4 | 16.1 | 0.00 | 0.00 | 0.00 | 67 | 1007.0 |
| 20260508073527 | 1 | 248 | 8.0 | 14.5 | 0.00 | 0.00 | 0.00 | 67 | 1006.9 |
| 20260508073043 | 1 | 249 | 6.4 | 20.9 | 0.00 | 0.00 | 0.00 | 67 | 1006.9 |
| 20260508072532 | 1 | 229 | 8.0 | 20.9 | 0.00 | 0.00 | 0.00 | 66 | 1006.8 |
| 20260508072031 | 1 | 227 | 6.4 | 19.3 | 0.00 | 0.00 | 0.00 | 66 | 1006.7 |
| 20260508071553 | 1 | 246 | 8.0 | 17.7 | 0.00 | 0.00 | 0.00 | 67 | 1006.6 |
| 20260508071033 | 1 | 253 | 8.0 | 16.1 | 0.00 | 0.00 | 0.00 | 67 | 1006.6 |
| 20260508070530 | 1 | 253 | 8.0 | 17.7 | 0.00 | 0.00 | 0.00 | 67 | 1006.5 |
| 20260508070044 | 1 | 252 | 6.4 | 17.7 | 0.00 | 0.00 | 0.00 | 67 | 1006.5 |
| 20260508065529 | 1 | 262 | 6.4 | 16.1 | 0.00 | 0.00 | 0.00 | 67 | 1006.5 |
| 20260508065031 | 1 | 251 | 8.0 | 17.7 | 0.00 | 0.00 | 0.00 | 67 | 1006.6 |
| 20260508064539 | 1 | 261 | 8.0 | 17.7 | 0.00 | 0.00 | 0.00 | 66 | 1006.7 |
| 20260508064032 | 1 | 256 | 8.0 | 16.1 | 0.00 | 0.00 | 0.00 | 66 | 1006.8 |
| 20260508063531 | 1 | 247 | 6.4 | 14.5 | 0.00 | 0.00 | 0.00 | 66 | 1006.8 |
| 20260508063043 | 1 | 243 | 6.4 | 19.3 | 0.00 | 0.00 | 0.00 | 66 | 1006.8 |
| 20260508062530 | 1 | 219 | 8.0 | 20.9 | 0.00 | 0.00 | 0.00 | 65 | 1006.8 |
| 20260508062030 | 1 | 232 | 8.0 | 20.9 | 0.00 | 0.00 | 0.00 | 66 | 1006.8 |
| 20260508061545 | 1 | 274 | 6.4 | 14.5 | 0.00 | 0.00 | 0.00 | 66 | 1006.8 |
| 20260508061031 | 1 | 260 | 6.4 | 14.5 | 0.00 | 0.00 | 0.00 | 65 | 1006.8 |
| 20260508060528 | 1 | 259 | 8.0 | 14.5 | 0.00 | 0.00 | 0.00 | 64 | 1006.9 |
| 20260508060044 | 1 | 255 | 6.4 | 14.5 | 0.00 | 0.00 | 0.00 | 64 | 1007.0 |
| 20260508055530 | 2 | 236 | 6.4 | 14.5 | 0.00 | 0.00 | 0.00 | 64 | 1007.0 |
| 20260508055030 | 2 | 246 | 6.4 | 14.5 | 0.00 | 0.00 | 0.00 | 64 | 1007.0 |
| 20260508054545 | 1 | 257 | 6.4 | 14.5 | 0.00 | 0.00 | 0.00 | 64 | 1007.1 |
| 20260508054030 | 1 | 221 | 4.8 | 11.3 | 0.00 | 0.00 | 0.00 | 63 | 1007.2 |
| 20260508053532 | 1 | 255 | 4.8 | 11.3 | 0.00 | 0.00 | 0.00 | 64 | 1007.1 |
| 20260508053100 | 1 | 247 | 3.2 | 12.9 | 0.00 | 0.00 | 0.00 | 63 | 1007.2 |
| 20260508052530 | 2 | 252 | 4.8 | 12.9 | 0.00 | 0.00 | 0.00 | 63 | 1007.2 |
| 20260508052029 | 2 | 250 | 3.2 | 9.7 | 0.00 | 0.00 | 0.00 | 63 | 1007.1 |
| 20260508051541 | 2 | 238 | 4.8 | 9.7 | 0.00 | 0.00 | 0.00 | 63 | 1007.2 |
| 20260508051030 | 2 | 228 | 3.2 | 12.9 | 0.00 | 0.00 | 0.00 | 63 | 1007.2 |
| 20260508050531 | 2 | 249 | 3.2 | 12.9 | 0.00 | 0.00 | 0.00 | 63 | 1007.3 |
| 20260508050047 | 2 | 246 | 3.2 | 12.9 | 0.00 | 0.00 | 0.00 | 63 | 1007.2 |
| 20260508045533 | 2 | 248 | 3.2 | 12.9 | 0.00 | 0.00 | 0.00 | 63 | 1007.3 |
| 20260508045030 | 2 | 272 | 3.2 | 12.9 | 0.00 | 0.00 | 0.00 | 64 | 1007.2 |
| 20260508044544 | 2 | 263 | 4.8 | 12.9 | 0.00 | 0.00 | 0.00 | 63 | 1007.4 |
| 20260508044032 | 2 | 259 | 3.2 | 9.7 | 0.00 | 0.00 | 0.00 | 63 | 1007.5 |
| 20260508043530 | 2 | 249 | 3.2 | 8.0 | 0.00 | 0.00 | 0.00 | 63 | 1007.3 |
| 20260508043044 | 2 | 301 | 1.6 | 8.0 | 0.00 | 0.00 | 0.00 | 63 | 1007.4 |
| 20260508042532 | 2 | 273 | 1.6 | 9.7 | 0.00 | 0.00 | 0.00 | 63 | 1007.5 |
| 20260508042032 | 2 | 252 | 3.2 | 11.3 | 0.00 | 0.00 | 0.00 | 63 | 1007.6 |
| 20260508041607 | 2 | 261 | 3.2 | 11.3 | 0.00 | 0.00 | 0.00 | 64 | 1007.7 |